Miscellaneous Local Product
Issued by NWS Hastings, NE

Home | Current Version | Previous Version | Text Only | Print | Product List | Glossary On
Versions: 1 2 3 4 5 6 7 8 9 10 11 12 13 14 15 16 17 18 19 20 21 22 23 24 25 26 27 28 29 30 31 32 33 34 35 36 37 38 39 40 41 42 43 44 45 46 47 48 49 50
000
AXUS43 KGID 201902
MISGRI

GID CWA HOURLY WEATHER ROUNDUP
NATIONAL WEATHER SERVICE HASTINGS NE
100 PM CST SAT JAN 20 2018

NOTE: "FAIR" INDICATES FEW OR NO CLOUDS BELOW 12,000 FEET WITH NO
SIGNIFICANT WEATHER AND/OR OBSTRUCTIONS TO VISIBILITY.

...SOUTH CENTRAL NEBRASKA...

CITY           SKY/WX    TMP DP  RH WIND       PRES   REMARKS
GRAND ISLAND   SUNNY     44  36  73 NE9       29.81F
KEARNEY        SUNNY     43  35  73 NE14      29.78F
HASTINGS       SUNNY     44  31  60 NE9       29.79F
ORD            SUNNY     49  31  49 NE7       29.82F
YORK           SUNNY     46  32  57 NE7       29.81F
AURORA         SUNNY     46  34  63 NE10      29.79F
LEXINGTON      SUNNY     46  33  60 NE12      29.78F
HOLDREGE       SUNNY     43  35  73 NE15      29.77F
HEBRON         CLOUDY    40  39  96 NE3       29.80F FOG

...NEBRASKA PANHANDLE...

CITY           SKY/WX    TMP DP  RH WIND       PRES   REMARKS
CHADRON        CLOUDY    34  32  92 NE3       29.90F
ALLIANCE       CLOUDY    32  31  96 NE16      29.84F WCI  21
SCOTTSBLUFF    CLOUDY    35  31  85 NE9       29.84F WCI  28
SIDNEY         CLOUDY    37  29  72 N13       29.82F WCI  29

...WESTERN AND NORTH CENTRAL NEBRASKA...

CITY           SKY/WX    TMP DP  RH WIND       PRES   REMARKS
VALENTINE      CLOUDY    42  34  73 N8        29.88F
AINSWORTH      CLOUDY    38  35  87 N10       29.87F WCI  31
ONEILL         CLOUDY    38  34  86 N10       29.86F WCI  30
BROKEN BOW     SUNNY     46  32  58 NE10      29.81F
IMPERIAL       SUNNY     47  30  51 NE13G22   29.78F
NORTH PLATTE   SUNNY     47  32  56 NE13      29.81F
MCCOOK         MOSUNNY   48  32  53 NE12G25   29.76F

...EASTERN NEBRASKA...

CITY           SKY/WX    TMP DP  RH WIND       PRES   REMARKS
NORFOLK        SUNNY     51  32  48 N7        29.81F
SO SIOUX CITY  SUNNY     51  34  52 CALM      29.85F
TEKAMAH        SUNNY     49  33  54 E6        29.84F
COLUMBUS       SUNNY     50  33  52 E9        29.83
ALBION         SUNNY     50  33  52 E10       29.82F
OMAHA EPPLEY   MOSUNNY   44  31  60 S8        29.84F
OFFUTT AFB     SUNNY     43  38  84 S5        29.84F
MILLARD        SUNNY     45  33  61 SE3       29.84F
LINCOLN        MOSUNNY   44  37  76 CALM      29.84F
NEBRASKA CITY  CLOUDY    42  39  88 NE3       29.84F
BEATRICE       CLOUDY    47  43  85 CALM      29.82F
FALLS CITY     CLOUDY    51  43  74 S3        29.83F

...NORTHERN KANSAS...

CITY           SKY/WX    TMP DP  RH WIND       PRES   REMARKS
GOODLAND       SUNNY     48  29  47 N12       29.73F
HILL CITY      SUNNY     47  27  45 N10       29.74F
NORTON         CLEAR     48  25  40 N10       29.74
PHILLIPSBURG   SUNNY     48  27  43 NE10      29.74F
SMITH CENTER     N/A     45  32  61 NE7       29.77F
BELOIT         SUNNY     48  37  66 CALM      29.77F
HAYS           SUNNY     47  21  35 VRB5      29.74F
RUSSELL        SUNNY     51  35  54 S8        29.73F
CONCORDIA      PTSUNNY   49  41  74 SE5       29.77F
SALINA         SUNNY     56  44  64 S14       29.77F
TOPEKA         CLOUDY    51  45  79 S7        29.83F



USA.gov is the U.S. government's official web portal to all federal, state and local government web resources and services.